Year,Month,Day,Hour,Minute,Value (Times are PST for temperature in C)
2014,08,11,00,00,20.60
2014,08,11,00,01,20.70
2014,08,11,00,02,20.70
2014,08,11,00,03,20.70
2014,08,11,00,04,20.60
2014,08,11,00,05,20.60
2014,08,11,00,06,20.50
2014,08,11,00,07,20.40
2014,08,11,00,08,20.20
2014,08,11,00,09,20.20
2014,08,11,00,10,20.10
2014,08,11,00,11,20.00
2014,08,11,00,12,19.90
2014,08,11,00,13,19.90
2014,08,11,00,14,19.80
2014,08,11,00,15,19.70
2014,08,11,00,16,19.70
2014,08,11,00,17,19.60
2014,08,11,00,18,19.50
2014,08,11,00,19,19.40
2014,08,11,00,20,19.40
2014,08,11,00,21,19.40
2014,08,11,00,22,19.30
2014,08,11,00,23,19.30
2014,08,11,00,24,19.20
2014,08,11,00,25,19.20
2014,08,11,00,26,19.10
2014,08,11,00,27,19.10
2014,08,11,00,28,19.10
2014,08,11,00,29,19.00
2014,08,11,00,30,19.00
2014,08,11,00,31,18.90
2014,08,11,00,32,18.90
2014,08,11,00,33,18.90
2014,08,11,00,34,18.80
2014,08,11,00,35,18.80
2014,08,11,00,36,18.80
2014,08,11,00,37,18.80
2014,08,11,00,38,18.70
2014,08,11,00,39,18.70
2014,08,11,00,40,18.70
2014,08,11,00,41,18.60
2014,08,11,00,42,18.60
2014,08,11,00,43,18.50
2014,08,11,00,44,18.50
2014,08,11,00,45,18.40
2014,08,11,00,46,18.40
2014,08,11,00,47,18.40
2014,08,11,00,48,18.40
2014,08,11,00,49,18.40
2014,08,11,00,50,18.30
2014,08,11,00,51,18.30
2014,08,11,00,52,18.30
2014,08,11,00,53,18.30
2014,08,11,00,54,18.30
2014,08,11,00,55,18.20
2014,08,11,00,56,18.20
2014,08,11,00,57,18.20
2014,08,11,00,58,18.10
2014,08,11,00,59,18.10
2014,08,11,01,00,18.10
2014,08,11,01,01,18.10
2014,08,11,01,02,18.10
2014,08,11,01,03,18.10
2014,08,11,01,04,18.10
2014,08,11,01,05,18.00
2014,08,11,01,06,18.00
2014,08,11,01,07,18.00
2014,08,11,01,08,18.00
2014,08,11,01,09,18.00
2014,08,11,01,10,17.90
2014,08,11,01,11,17.90
2014,08,11,01,12,17.90
2014,08,11,01,13,17.90
2014,08,11,01,14,17.90
2014,08,11,01,15,17.90
2014,08,11,01,16,17.90
2014,08,11,01,17,17.90
2014,08,11,01,18,17.90
2014,08,11,01,19,17.90
2014,08,11,01,20,17.90
2014,08,11,01,21,17.90
2014,08,11,01,22,17.90
2014,08,11,01,23,17.90
2014,08,11,01,24,17.90
2014,08,11,01,25,17.80
2014,08,11,01,26,17.80
2014,08,11,01,27,17.80
2014,08,11,01,28,17.80
2014,08,11,01,29,17.80
2014,08,11,01,30,17.70
2014,08,11,01,31,17.70
2014,08,11,01,32,17.70
2014,08,11,01,33,17.60
2014,08,11,01,34,17.60
2014,08,11,01,35,17.60
2014,08,11,01,36,17.60
2014,08,11,01,37,17.50
2014,08,11,01,38,17.50
2014,08,11,01,39,17.50
2014,08,11,01,40,17.50
2014,08,11,01,41,17.40
2014,08,11,01,42,17.40
2014,08,11,01,43,17.40
2014,08,11,01,44,17.40
2014,08,11,01,45,17.30
2014,08,11,01,46,17.30
2014,08,11,01,47,17.30
2014,08,11,01,48,17.30
2014,08,11,01,49,17.20
2014,08,11,01,50,17.20
2014,08,11,01,51,17.20
2014,08,11,01,52,17.10
2014,08,11,01,53,17.10
2014,08,11,01,54,17.10
2014,08,11,01,55,17.10
2014,08,11,01,56,17.00
2014,08,11,01,57,17.00
2014,08,11,01,58,17.00
2014,08,11,01,59,17.00
2014,08,11,02,00,16.90
2014,08,11,02,01,16.90
2014,08,11,02,02,16.80
2014,08,11,02,03,16.80
2014,08,11,02,04,16.70
2014,08,11,02,05,16.70
2014,08,11,02,06,16.60
2014,08,11,02,07,16.60
2014,08,11,02,08,16.60
2014,08,11,02,09,16.50
2014,08,11,02,10,16.50
2014,08,11,02,11,16.40
2014,08,11,02,12,16.40
2014,08,11,02,13,16.30
2014,08,11,02,14,16.30
2014,08,11,02,15,16.20
2014,08,11,02,16,16.10
2014,08,11,02,17,16.00
2014,08,11,02,18,15.90
2014,08,11,02,19,15.90
2014,08,11,02,20,15.80
2014,08,11,02,21,15.80
2014,08,11,02,22,15.80
2014,08,11,02,23,15.70
2014,08,11,02,24,15.70
2014,08,11,02,25,15.70
2014,08,11,02,26,15.60
2014,08,11,02,27,15.60
2014,08,11,02,28,15.60
2014,08,11,02,29,15.50
2014,08,11,02,30,15.50
2014,08,11,02,31,15.50
2014,08,11,02,32,15.50
2014,08,11,02,33,15.40
2014,08,11,02,34,15.40
2014,08,11,02,35,15.30
2014,08,11,02,36,15.30
2014,08,11,02,37,15.30
2014,08,11,02,38,15.20
2014,08,11,02,39,15.20
2014,08,11,02,40,15.10
2014,08,11,02,41,15.10
2014,08,11,02,42,15.10
2014,08,11,02,43,15.10
2014,08,11,02,44,15.10
2014,08,11,02,45,15.10
2014,08,11,02,46,15.10
2014,08,11,02,47,15.20
2014,08,11,02,48,15.20
2014,08,11,02,49,15.20
2014,08,11,02,50,15.20
2014,08,11,02,51,15.20
2014,08,11,02,52,15.30
2014,08,11,02,53,15.30
2014,08,11,02,54,15.30
2014,08,11,02,55,15.30
2014,08,11,02,56,15.30
2014,08,11,02,57,15.40
2014,08,11,02,58,15.40
2014,08,11,02,59,15.50
2014,08,11,03,00,15.50
2014,08,11,03,01,15.60
2014,08,11,03,02,15.60
2014,08,11,03,03,15.60
2014,08,11,03,04,15.60
2014,08,11,03,05,15.70
2014,08,11,03,06,15.70
2014,08,11,03,07,15.80
2014,08,11,03,08,15.80
2014,08,11,03,09,15.80
2014,08,11,03,10,15.80
2014,08,11,03,11,15.80
2014,08,11,03,12,15.80
2014,08,11,03,13,15.80
2014,08,11,03,14,15.70
2014,08,11,03,15,15.70
2014,08,11,03,16,15.70
2014,08,11,03,17,15.60
2014,08,11,03,18,15.60
2014,08,11,03,19,15.60
2014,08,11,03,20,15.60
2014,08,11,03,21,15.60
2014,08,11,03,22,15.60
2014,08,11,03,23,15.60
2014,08,11,03,24,15.70
2014,08,11,03,25,15.70
2014,08,11,03,26,15.70
2014,08,11,03,27,15.70
2014,08,11,03,28,15.70
2014,08,11,03,29,15.70
2014,08,11,03,30,15.70
2014,08,11,03,31,15.60
2014,08,11,03,32,15.60
2014,08,11,03,33,15.50
2014,08,11,03,34,15.50
2014,08,11,03,35,15.40
2014,08,11,03,36,15.40
2014,08,11,03,37,15.30
2014,08,11,03,38,15.20
2014,08,11,03,39,15.20
2014,08,11,03,40,15.10
2014,08,11,03,41,15.10
2014,08,11,03,42,15.00
2014,08,11,03,43,15.00
2014,08,11,03,44,14.90
2014,08,11,03,45,14.90
2014,08,11,03,46,14.90
2014,08,11,03,47,14.80
2014,08,11,03,48,14.80
2014,08,11,03,49,14.80
2014,08,11,03,50,14.80
2014,08,11,03,51,14.80
2014,08,11,03,52,14.80
2014,08,11,03,53,14.80
2014,08,11,03,54,14.80
2014,08,11,03,55,14.80
2014,08,11,03,56,14.80
2014,08,11,03,57,14.70
2014,08,11,03,58,14.70
2014,08,11,03,59,14.70
2014,08,11,04,00,14.70
2014,08,11,04,01,14.70
2014,08,11,04,02,14.70
2014,08,11,04,03,14.70
2014,08,11,04,04,14.80
2014,08,11,04,05,14.80
2014,08,11,04,06,14.80
2014,08,11,04,07,14.80
2014,08,11,04,08,14.70
2014,08,11,04,09,14.70
2014,08,11,04,10,14.70
2014,08,11,04,11,14.70
2014,08,11,04,12,14.70
2014,08,11,04,13,14.70
2014,08,11,04,14,14.80
2014,08,11,04,15,14.80
2014,08,11,04,16,14.80
2014,08,11,04,17,14.90
2014,08,11,04,18,14.90
2014,08,11,04,19,14.90
2014,08,11,04,20,14.90
2014,08,11,04,21,14.90
2014,08,11,04,22,15.00
2014,08,11,04,23,15.00
2014,08,11,04,24,15.00
2014,08,11,04,25,15.00
2014,08,11,04,26,15.00
2014,08,11,04,27,15.00
2014,08,11,04,28,15.00
2014,08,11,04,29,15.10
2014,08,11,04,30,15.10
2014,08,11,04,31,15.10
2014,08,11,04,32,15.10
2014,08,11,04,33,15.10
2014,08,11,04,34,15.10
2014,08,11,04,35,15.10
2014,08,11,04,36,15.10
2014,08,11,04,37,15.10
2014,08,11,04,38,15.10
2014,08,11,04,39,15.10
2014,08,11,04,40,15.10
2014,08,11,04,41,15.10
2014,08,11,04,42,15.10
2014,08,11,04,43,15.10
2014,08,11,04,44,15.10
2014,08,11,04,45,15.10
2014,08,11,04,46,15.20
2014,08,11,04,47,15.10
2014,08,11,04,48,15.10
2014,08,11,04,49,15.10
2014,08,11,04,50,15.10
2014,08,11,04,51,15.00
2014,08,11,04,52,15.00
2014,08,11,04,53,15.00
2014,08,11,04,54,15.00
2014,08,11,04,55,15.10
2014,08,11,04,56,15.10
2014,08,11,04,57,15.10
2014,08,11,04,58,15.10
2014,08,11,04,59,15.20
2014,08,11,05,00,15.20
2014,08,11,05,01,15.20
2014,08,11,05,02,15.20
2014,08,11,05,03,15.20
2014,08,11,05,04,15.30
2014,08,11,05,05,15.30
2014,08,11,05,06,15.30
2014,08,11,05,07,15.20
2014,08,11,05,08,15.20
2014,08,11,05,09,15.20
2014,08,11,05,10,15.20
2014,08,11,05,11,15.20
2014,08,11,05,12,15.20
2014,08,11,05,13,15.30
2014,08,11,05,14,15.30
2014,08,11,05,15,15.30
2014,08,11,05,16,15.40
2014,08,11,05,17,15.40
2014,08,11,05,18,15.50
2014,08,11,05,19,15.50
2014,08,11,05,20,15.60
2014,08,11,05,21,15.70
2014,08,11,05,22,15.70
2014,08,11,05,23,15.60
2014,08,11,05,24,15.50
2014,08,11,05,25,15.40
2014,08,11,05,26,15.30
2014,08,11,05,27,15.30
2014,08,11,05,28,15.30
2014,08,11,05,29,15.20
2014,08,11,05,30,15.20
2014,08,11,05,31,15.20
2014,08,11,05,32,15.10
2014,08,11,05,33,15.10
2014,08,11,05,34,15.10
2014,08,11,05,35,15.10
2014,08,11,05,36,15.10
2014,08,11,05,37,15.10
2014,08,11,05,38,15.10
2014,08,11,05,39,15.10
2014,08,11,05,40,15.10
2014,08,11,05,41,15.10
2014,08,11,05,42,15.10
2014,08,11,05,43,15.10
2014,08,11,05,44,15.10
2014,08,11,05,45,15.10
2014,08,11,05,46,15.20
2014,08,11,05,47,15.20
2014,08,11,05,48,15.30
2014,08,11,05,49,15.30
2014,08,11,05,50,15.30
2014,08,11,05,51,15.40
2014,08,11,05,52,15.40
2014,08,11,05,53,15.40
2014,08,11,05,54,15.40
2014,08,11,05,55,15.40
2014,08,11,05,56,15.40
2014,08,11,05,57,15.40
2014,08,11,05,58,15.30
2014,08,11,05,59,15.30
2014,08,11,06,00,15.30
2014,08,11,06,01,15.30
2014,08,11,06,02,15.30
2014,08,11,06,03,15.30
2014,08,11,06,04,15.30
2014,08,11,06,05,15.20
2014,08,11,06,06,15.20
2014,08,11,06,07,15.20
2014,08,11,06,08,15.10
2014,08,11,06,09,15.10
2014,08,11,06,10,15.10
2014,08,11,06,11,15.00
2014,08,11,06,12,15.00
2014,08,11,06,13,14.90
2014,08,11,06,14,14.90
2014,08,11,06,15,14.90
2014,08,11,06,16,14.90
2014,08,11,06,17,14.80
2014,08,11,06,18,14.80
2014,08,11,06,19,14.80
2014,08,11,06,20,14.80
2014,08,11,06,21,14.90
2014,08,11,06,22,14.90
2014,08,11,06,23,14.90
2014,08,11,06,24,14.90
2014,08,11,06,25,14.90
2014,08,11,06,26,14.90
2014,08,11,06,27,14.90
2014,08,11,06,28,14.80
2014,08,11,06,29,14.80
2014,08,11,06,30,14.80
2014,08,11,06,31,14.80
2014,08,11,06,32,14.80
2014,08,11,06,33,14.80
2014,08,11,06,34,14.80
2014,08,11,06,35,14.80
2014,08,11,06,36,14.80
2014,08,11,06,37,14.90
2014,08,11,06,38,14.90
2014,08,11,06,39,14.90
2014,08,11,06,40,14.90
2014,08,11,06,41,14.90
2014,08,11,06,42,14.80
2014,08,11,06,43,14.80
2014,08,11,06,44,14.80
2014,08,11,06,45,14.80
2014,08,11,06,46,14.80
2014,08,11,06,47,14.80
2014,08,11,06,48,14.80
2014,08,11,06,49,14.80
2014,08,11,06,50,14.70
2014,08,11,06,51,14.80
2014,08,11,06,52,14.70
2014,08,11,06,53,14.80
2014,08,11,06,54,14.80
2014,08,11,06,55,14.80
2014,08,11,06,56,14.80
2014,08,11,06,57,14.80
2014,08,11,06,58,14.80
2014,08,11,06,59,14.90
2014,08,11,07,00,14.90
2014,08,11,07,01,14.90
2014,08,11,07,02,15.00
2014,08,11,07,03,15.00
2014,08,11,07,04,15.10
2014,08,11,07,05,15.10
2014,08,11,07,06,15.10
2014,08,11,07,07,15.10
2014,08,11,07,08,15.20
2014,08,11,07,09,15.20
2014,08,11,07,10,15.20
2014,08,11,07,11,15.20
2014,08,11,07,12,15.20
2014,08,11,07,13,15.20
2014,08,11,07,14,15.20
2014,08,11,07,15,15.30
2014,08,11,07,16,15.30
2014,08,11,07,17,15.30
2014,08,11,07,18,15.30
2014,08,11,07,19,15.30
2014,08,11,07,20,15.40
2014,08,11,07,21,15.40
2014,08,11,07,22,15.40
2014,08,11,07,23,15.50
2014,08,11,07,24,15.50
2014,08,11,07,25,15.60
2014,08,11,07,26,15.60
2014,08,11,07,27,15.70
2014,08,11,07,28,15.80
2014,08,11,07,29,15.80
2014,08,11,07,30,15.90
2014,08,11,07,31,16.00
2014,08,11,07,32,16.10
2014,08,11,07,33,16.20
2014,08,11,07,34,16.20
2014,08,11,07,35,16.30
2014,08,11,07,36,16.40
2014,08,11,07,37,16.40
2014,08,11,07,38,16.50
2014,08,11,07,39,16.50
2014,08,11,07,40,16.60
2014,08,11,07,41,16.70
2014,08,11,07,42,16.80
2014,08,11,07,43,16.80
2014,08,11,07,44,16.90
2014,08,11,07,45,17.00
2014,08,11,07,46,17.10
2014,08,11,07,47,17.10
2014,08,11,07,48,17.20
2014,08,11,07,49,17.20
2014,08,11,07,50,17.30
2014,08,11,07,51,17.30
2014,08,11,07,52,17.30
2014,08,11,07,53,17.30
2014,08,11,07,54,17.40
2014,08,11,07,55,17.40
2014,08,11,07,56,17.40
2014,08,11,07,57,17.40
2014,08,11,07,58,17.50
2014,08,11,07,59,17.50
2014,08,11,08,00,17.60
2014,08,11,08,01,17.60
2014,08,11,08,02,17.70
2014,08,11,08,03,17.70
2014,08,11,08,04,17.80
2014,08,11,08,05,17.80
2014,08,11,08,06,17.90
2014,08,11,08,07,17.90
2014,08,11,08,08,18.00
2014,08,11,08,09,18.10
2014,08,11,08,10,18.10
2014,08,11,08,11,18.20
2014,08,11,08,12,18.30
2014,08,11,08,13,18.40
2014,08,11,08,14,18.50
2014,08,11,08,15,18.60
2014,08,11,08,16,18.80
2014,08,11,08,17,18.90
2014,08,11,08,18,19.00
2014,08,11,08,19,19.20
2014,08,11,08,20,19.30
2014,08,11,08,21,19.40
2014,08,11,08,22,19.50
2014,08,11,08,23,19.50
2014,08,11,08,24,19.60
2014,08,11,08,25,19.70
2014,08,11,08,26,19.70
2014,08,11,08,27,19.80
2014,08,11,08,28,19.90
2014,08,11,08,29,19.90
2014,08,11,08,30,20.00
2014,08,11,08,31,20.10
2014,08,11,08,32,20.20
2014,08,11,08,33,20.30
2014,08,11,08,34,20.40
2014,08,11,08,35,20.50
2014,08,11,08,36,20.60
2014,08,11,08,37,20.70
2014,08,11,08,38,20.80
2014,08,11,08,39,20.90
2014,08,11,08,40,21.00
2014,08,11,08,41,21.10
2014,08,11,08,42,21.20
2014,08,11,08,43,21.30
2014,08,11,08,44,21.40
2014,08,11,08,45,21.40
2014,08,11,08,46,21.50
2014,08,11,08,47,21.50
2014,08,11,08,48,21.60
2014,08,11,08,49,21.60
2014,08,11,08,50,21.60
2014,08,11,08,51,21.70
2014,08,11,08,52,21.70
2014,08,11,08,53,21.70
2014,08,11,08,54,21.80
2014,08,11,08,55,21.80
2014,08,11,08,56,21.80
2014,08,11,08,57,21.80
2014,08,11,08,58,21.90
2014,08,11,08,59,21.90
2014,08,11,09,00,21.90
2014,08,11,09,01,21.90
2014,08,11,09,02,21.90
2014,08,11,09,03,21.90
2014,08,11,09,04,21.90
2014,08,11,09,05,21.90
2014,08,11,09,06,21.90
2014,08,11,09,07,21.90
2014,08,11,09,08,21.90
2014,08,11,09,09,21.90
2014,08,11,09,10,22.00
2014,08,11,09,11,22.00
2014,08,11,09,12,22.10
2014,08,11,09,13,22.10
2014,08,11,09,14,22.10
2014,08,11,09,15,22.10
2014,08,11,09,16,22.10
2014,08,11,09,17,22.10
2014,08,11,09,18,22.10
2014,08,11,09,19,22.10
2014,08,11,09,20,22.00
2014,08,11,09,21,22.00
2014,08,11,09,22,22.00
2014,08,11,09,23,22.00
2014,08,11,09,24,22.10
2014,08,11,09,25,22.10
2014,08,11,09,26,22.10
2014,08,11,09,27,22.20
2014,08,11,09,28,22.20
2014,08,11,09,29,22.20
2014,08,11,09,30,22.30
2014,08,11,09,31,22.30
2014,08,11,09,32,22.30
2014,08,11,09,33,22.30
2014,08,11,09,34,22.30
2014,08,11,09,35,22.30
2014,08,11,09,36,22.20
2014,08,11,09,37,22.20
2014,08,11,09,38,22.20
2014,08,11,09,39,22.30
2014,08,11,09,40,22.30
2014,08,11,09,41,22.30
2014,08,11,09,42,22.40
2014,08,11,09,43,22.40
2014,08,11,09,44,22.40
2014,08,11,09,45,22.50
2014,08,11,09,46,22.50
2014,08,11,09,47,22.50
2014,08,11,09,48,22.50
2014,08,11,09,49,22.50
2014,08,11,09,50,22.40
2014,08,11,09,51,22.40
2014,08,11,09,52,22.30
2014,08,11,09,53,22.40
2014,08,11,09,54,22.40
2014,08,11,09,55,22.50
2014,08,11,09,56,22.70
2014,08,11,09,57,22.80
2014,08,11,09,58,22.80
2014,08,11,09,59,22.80
2014,08,11,10,00,22.80
2014,08,11,10,01,22.80
2014,08,11,10,02,22.80
2014,08,11,10,03,22.80
2014,08,11,10,04,22.90
2014,08,11,10,05,22.90
2014,08,11,10,06,23.00
2014,08,11,10,07,23.00
2014,08,11,10,08,23.10
2014,08,11,10,09,23.20
2014,08,11,10,10,23.10
2014,08,11,10,11,23.10
2014,08,11,10,12,23.10
2014,08,11,10,13,23.00
2014,08,11,10,14,23.00
2014,08,11,10,15,23.00
2014,08,11,10,16,23.00
2014,08,11,10,17,23.00
2014,08,11,10,18,23.10
2014,08,11,10,19,23.10
2014,08,11,10,20,23.10
2014,08,11,10,21,23.10
2014,08,11,10,22,23.10
2014,08,11,10,23,23.20
2014,08,11,10,24,23.20
2014,08,11,10,25,23.20
2014,08,11,10,26,23.20
2014,08,11,10,27,23.30
2014,08,11,10,28,23.30
2014,08,11,10,29,23.40
2014,08,11,10,30,23.40
2014,08,11,10,31,23.40
2014,08,11,10,32,23.40
2014,08,11,10,33,23.40
2014,08,11,10,34,23.40
2014,08,11,10,35,23.40
2014,08,11,10,36,23.50
2014,08,11,10,37,23.50
2014,08,11,10,38,23.50
2014,08,11,10,39,23.60
2014,08,11,10,40,23.60
2014,08,11,10,41,23.50
2014,08,11,10,42,23.50
2014,08,11,10,43,23.50
2014,08,11,10,44,23.60
2014,08,11,10,45,23.70
2014,08,11,10,46,23.70
2014,08,11,10,47,23.80
2014,08,11,10,48,23.80
2014,08,11,10,49,23.80
2014,08,11,10,50,23.80
2014,08,11,10,51,23.90
2014,08,11,10,52,23.90
2014,08,11,10,53,24.00
2014,08,11,10,54,24.00
2014,08,11,10,55,24.10
2014,08,11,10,56,24.20
2014,08,11,10,57,24.30
2014,08,11,10,58,24.30
2014,08,11,10,59,24.30
2014,08,11,11,00,24.30
2014,08,11,11,01,24.30
2014,08,11,11,02,24.30
2014,08,11,11,03,24.30
2014,08,11,11,04,24.30
2014,08,11,11,05,24.30
2014,08,11,11,06,24.20
2014,08,11,11,07,24.20
2014,08,11,11,08,24.20
2014,08,11,11,09,24.20
2014,08,11,11,10,24.30
2014,08,11,11,11,24.30
2014,08,11,11,12,24.40
2014,08,11,11,13,24.50
2014,08,11,11,14,24.60
2014,08,11,11,15,24.60
2014,08,11,11,16,24.60
2014,08,11,11,17,24.70
2014,08,11,11,18,24.80
2014,08,11,11,19,24.90
2014,08,11,11,20,24.90
2014,08,11,11,21,24.80
2014,08,11,11,22,24.80
2014,08,11,11,23,24.80
2014,08,11,11,24,24.90
2014,08,11,11,25,25.00
2014,08,11,11,26,25.00
2014,08,11,11,27,25.10
2014,08,11,11,28,25.00
2014,08,11,11,29,25.00
2014,08,11,11,30,24.90
2014,08,11,11,31,24.80
2014,08,11,11,32,24.80
2014,08,11,11,33,24.80
2014,08,11,11,34,24.80
2014,08,11,11,35,24.80
2014,08,11,11,36,24.90
2014,08,11,11,37,25.00
2014,08,11,11,38,25.10
2014,08,11,11,39,25.20
2014,08,11,11,40,25.30
2014,08,11,11,41,25.30
2014,08,11,11,42,25.30
2014,08,11,11,43,25.20
2014,08,11,11,44,25.20
2014,08,11,11,45,25.20
2014,08,11,11,46,25.20
2014,08,11,11,47,25.30
2014,08,11,11,48,25.30
2014,08,11,11,49,25.30
2014,08,11,11,50,25.30
2014,08,11,11,51,25.40
2014,08,11,11,52,25.50
2014,08,11,11,53,25.40
2014,08,11,11,54,25.40
2014,08,11,11,55,25.40
2014,08,11,11,56,25.40
2014,08,11,11,57,25.40
2014,08,11,11,58,25.40
2014,08,11,11,59,25.50
2014,08,11,12,00,25.60
2014,08,11,12,01,25.70
2014,08,11,12,02,25.80
2014,08,11,12,03,25.90
2014,08,11,12,04,26.00
2014,08,11,12,05,26.10
2014,08,11,12,06,26.00
2014,08,11,12,07,26.00
2014,08,11,12,08,25.90
2014,08,11,12,09,25.90
2014,08,11,12,10,25.90
2014,08,11,12,11,25.90
2014,08,11,12,12,26.00
2014,08,11,12,13,26.00
2014,08,11,12,14,26.00
2014,08,11,12,15,26.10
2014,08,11,12,16,26.10
2014,08,11,12,17,26.10
2014,08,11,12,18,26.10
2014,08,11,12,19,26.20
2014,08,11,12,20,26.30
2014,08,11,12,21,26.40
2014,08,11,12,22,26.50
2014,08,11,12,23,26.60
2014,08,11,12,24,26.60
2014,08,11,12,25,26.60
2014,08,11,12,26,26.70
2014,08,11,12,27,26.70
2014,08,11,12,28,26.80
2014,08,11,12,29,26.90
2014,08,11,12,30,26.90
2014,08,11,12,31,26.90
2014,08,11,12,32,26.90
2014,08,11,12,33,26.80
2014,08,11,12,34,26.90
2014,08,11,12,35,26.90
2014,08,11,12,36,26.90
2014,08,11,12,37,26.90
2014,08,11,12,38,26.90
2014,08,11,12,39,27.00
2014,08,11,12,40,27.10
2014,08,11,12,41,27.10
2014,08,11,12,42,27.20
2014,08,11,12,43,27.30
2014,08,11,12,44,27.40
2014,08,11,12,45,27.50
2014,08,11,12,46,27.70
2014,08,11,12,47,27.80
2014,08,11,12,48,27.90
2014,08,11,12,49,28.00
2014,08,11,12,50,28.00
2014,08,11,12,51,28.00
2014,08,11,12,52,27.90
2014,08,11,12,53,27.90
2014,08,11,12,54,27.90
2014,08,11,12,55,27.90
2014,08,11,12,56,27.90
2014,08,11,12,57,27.90
2014,08,11,12,58,27.90
2014,08,11,12,59,27.90
2014,08,11,13,00,27.90
2014,08,11,13,01,27.90
2014,08,11,13,02,27.90
2014,08,11,13,03,27.90
2014,08,11,13,04,27.80
2014,08,11,13,05,27.80
2014,08,11,13,06,27.80
2014,08,11,13,07,27.80
2014,08,11,13,08,27.80
2014,08,11,13,09,27.80
2014,08,11,13,10,27.80
2014,08,11,13,11,27.80
2014,08,11,13,12,27.80
2014,08,11,13,13,27.90
2014,08,11,13,14,27.90
2014,08,11,13,15,27.90
2014,08,11,13,16,28.00
2014,08,11,13,17,28.00
2014,08,11,13,18,28.00
2014,08,11,13,19,28.00
2014,08,11,13,20,28.10
2014,08,11,13,21,28.10
2014,08,11,13,22,28.10
2014,08,11,13,23,28.20
2014,08,11,13,24,28.30
2014,08,11,13,25,28.30
2014,08,11,13,26,28.30
2014,08,11,13,27,28.40
2014,08,11,13,28,28.40
2014,08,11,13,29,28.50
2014,08,11,13,30,28.50
2014,08,11,13,31,28.60
2014,08,11,13,32,28.60
2014,08,11,13,33,28.60
2014,08,11,13,34,28.60
2014,08,11,13,35,28.70
2014,08,11,13,36,28.70
2014,08,11,13,37,28.70
2014,08,11,13,38,28.70
2014,08,11,13,39,28.70
2014,08,11,13,40,28.70
2014,08,11,13,41,28.60
2014,08,11,13,42,28.60
2014,08,11,13,43,28.60
2014,08,11,13,44,28.60
2014,08,11,13,45,28.60
2014,08,11,13,46,28.70
2014,08,11,13,47,28.80
2014,08,11,13,48,28.80
2014,08,11,13,49,28.70
2014,08,11,13,50,28.70
2014,08,11,13,51,28.70
2014,08,11,13,52,28.70
2014,08,11,13,53,28.70
2014,08,11,13,54,28.80
2014,08,11,13,55,28.80
2014,08,11,13,56,28.90
2014,08,11,13,57,28.90
2014,08,11,13,58,28.80
2014,08,11,13,59,28.80
2014,08,11,14,00,28.70
2014,08,11,14,01,28.60
2014,08,11,14,02,28.60
2014,08,11,14,03,28.60
2014,08,11,14,04,28.60
2014,08,11,14,05,28.60
2014,08,11,14,06,28.50
2014,08,11,14,07,28.40
2014,08,11,14,08,28.40
2014,08,11,14,09,28.30
2014,08,11,14,10,28.30
2014,08,11,14,11,28.30
2014,08,11,14,12,28.30
2014,08,11,14,13,28.30
2014,08,11,14,14,28.30
2014,08,11,14,15,28.40
2014,08,11,14,16,28.40
2014,08,11,14,17,28.40
2014,08,11,14,18,28.40
2014,08,11,14,19,28.30
2014,08,11,14,20,28.20
2014,08,11,14,21,28.20
2014,08,11,14,22,28.10
2014,08,11,14,23,28.10
2014,08,11,14,24,28.10
2014,08,11,14,25,28.10
2014,08,11,14,26,28.20
2014,08,11,14,27,28.20
2014,08,11,14,28,28.10
2014,08,11,14,29,28.00
2014,08,11,14,30,28.00
2014,08,11,14,31,28.00
2014,08,11,14,32,28.00
2014,08,11,14,33,28.00
2014,08,11,14,34,28.00
2014,08,11,14,35,28.00
2014,08,11,14,36,28.00
2014,08,11,14,37,28.00
2014,08,11,14,38,28.10
2014,08,11,14,39,28.10
2014,08,11,14,40,28.10
2014,08,11,14,41,28.20
2014,08,11,14,42,28.20
2014,08,11,14,43,28.30
2014,08,11,14,44,28.30
2014,08,11,14,45,28.30
2014,08,11,14,46,28.40
2014,08,11,14,47,28.40
2014,08,11,14,48,28.50
2014,08,11,14,49,28.50
2014,08,11,14,50,28.50
2014,08,11,14,51,28.50
2014,08,11,14,52,28.30
2014,08,11,14,53,27.90
2014,08,11,14,54,27.50
2014,08,11,14,55,27.00
2014,08,11,14,56,26.50
2014,08,11,14,57,26.10
2014,08,11,14,58,25.70
2014,08,11,14,59,25.50
2014,08,11,15,00,25.20
2014,08,11,15,01,24.90
2014,08,11,15,02,24.70
2014,08,11,15,03,24.60
2014,08,11,15,04,24.50
2014,08,11,15,05,24.40
2014,08,11,15,06,24.40
2014,08,11,15,07,24.40
2014,08,11,15,08,24.40
2014,08,11,15,09,24.40
2014,08,11,15,10,24.40
2014,08,11,15,11,24.50
2014,08,11,15,12,24.60
2014,08,11,15,13,24.60
2014,08,11,15,14,24.60
2014,08,11,15,15,24.70
2014,08,11,15,16,24.70
2014,08,11,15,17,24.70
2014,08,11,15,18,24.80
2014,08,11,15,19,24.80
2014,08,11,15,20,24.90
2014,08,11,15,21,24.90
2014,08,11,15,22,25.00
2014,08,11,15,23,25.10
2014,08,11,15,24,25.10
2014,08,11,15,25,25.10
2014,08,11,15,26,25.10
2014,08,11,15,27,25.20
2014,08,11,15,28,25.20
2014,08,11,15,29,25.30
2014,08,11,15,30,25.30
2014,08,11,15,31,25.30
2014,08,11,15,32,25.40
2014,08,11,15,33,25.40
2014,08,11,15,34,25.50
2014,08,11,15,35,25.60
2014,08,11,15,36,25.60
2014,08,11,15,37,25.70
2014,08,11,15,38,25.70
2014,08,11,15,39,25.80
2014,08,11,15,40,25.90
2014,08,11,15,41,25.90
2014,08,11,15,42,26.00
2014,08,11,15,43,26.00
2014,08,11,15,44,26.10
2014,08,11,15,45,26.20
2014,08,11,15,46,26.30
2014,08,11,15,47,26.30
2014,08,11,15,48,26.40
2014,08,11,15,49,26.50
2014,08,11,15,50,26.70
2014,08,11,15,51,26.80
2014,08,11,15,52,26.90
2014,08,11,15,53,27.10
2014,08,11,15,54,27.20
2014,08,11,15,55,27.30
2014,08,11,15,56,27.40
2014,08,11,15,57,27.50
2014,08,11,15,58,27.60
2014,08,11,15,59,27.80
2014,08,11,16,00,27.90
2014,08,11,16,01,27.90
2014,08,11,16,02,27.90
2014,08,11,16,03,27.90
2014,08,11,16,04,27.80
2014,08,11,16,05,27.80
2014,08,11,16,06,27.80
2014,08,11,16,07,27.80
2014,08,11,16,08,27.80
2014,08,11,16,09,27.80
2014,08,11,16,10,27.90
2014,08,11,16,11,27.90
2014,08,11,16,12,27.90
2014,08,11,16,13,27.80
2014,08,11,16,14,27.60
2014,08,11,16,15,27.50
2014,08,11,16,16,27.40
2014,08,11,16,17,27.30
2014,08,11,16,18,27.20
2014,08,11,16,19,27.20
2014,08,11,16,20,27.10
2014,08,11,16,21,27.10
2014,08,11,16,22,26.90
2014,08,11,16,23,26.80
2014,08,11,16,24,26.80
2014,08,11,16,25,26.70
2014,08,11,16,26,26.60
2014,08,11,16,27,26.50
2014,08,11,16,28,26.40
2014,08,11,16,29,26.40
2014,08,11,16,30,26.40
2014,08,11,16,31,26.30
2014,08,11,16,32,26.20
2014,08,11,16,33,26.20
2014,08,11,16,34,26.20
2014,08,11,16,35,26.20
2014,08,11,16,36,26.20
2014,08,11,16,37,26.20
2014,08,11,16,38,26.20
2014,08,11,16,39,26.20
2014,08,11,16,40,26.10
2014,08,11,16,41,26.10
2014,08,11,16,42,26.10
2014,08,11,16,43,26.10
2014,08,11,16,44,26.10
2014,08,11,16,45,26.10
2014,08,11,16,46,26.10
2014,08,11,16,47,26.10
2014,08,11,16,48,26.10
2014,08,11,16,49,26.10
2014,08,11,16,50,26.10
2014,08,11,16,51,26.10
2014,08,11,16,52,26.10
2014,08,11,16,53,26.20
2014,08,11,16,54,26.20
2014,08,11,16,55,26.20
2014,08,11,16,56,26.30
2014,08,11,16,57,26.30
2014,08,11,16,58,26.30
2014,08,11,16,59,26.40
2014,08,11,17,00,26.50
2014,08,11,17,01,26.50
2014,08,11,17,02,26.50
2014,08,11,17,03,26.50
2014,08,11,17,04,26.40
2014,08,11,17,05,26.40
2014,08,11,17,06,26.40
2014,08,11,17,07,26.40
2014,08,11,17,08,26.40
2014,08,11,17,09,26.40
2014,08,11,17,10,26.50
2014,08,11,17,11,26.50
2014,08,11,17,12,26.50
2014,08,11,17,13,26.60
2014,08,11,17,14,26.60
2014,08,11,17,15,26.60
2014,08,11,17,16,26.60
2014,08,11,17,17,26.60
2014,08,11,17,18,26.60
2014,08,11,17,19,26.70